Regional Weather Roundup
Issued by NWS

Home | Current Version | Previous Version | Graphics & Text | Print | Product List | Glossary On
Versions: 1 2 3 4 5 6 7 8 9 10 11 12 13 14 15 16 17 18 19 20 21 22 23 24 25 26 27 28 29 30 31 32 33 34 35 36 37 38 39 40 41 42 43 44 45 46 47 48 49 50
000
ASUS45 KCYS 250010
RWRWY

WYOMING REGIONAL WEATHER ROUNDUP
NATIONAL WEATHER SERVICE CHEYENNE WY
500 PM MST WED DEC 24 2014

NOTE:  "FAIR" INDICATES FEW OR NO CLOUDS BELOW 12,000 FEET
WITH NO SIGNIFICANT WEATHER AND/OR OBSTRUCTIONS TO VISIBILITY.

WYZ001-250100-
YELLOWSTONE NATIONAL PARK

CITY           SKY/WX    TMP DP  RH WIND       PRES   REMARKS
LK YELLOWSTONE   N/A     22  20  92 CALM      29.57F
6HR MIN TEMP:  22; 6HR MAX TEMP:  23; 6HR PCP:  0.08;

W YELLOWSTONE  NOT AVBL

$$
WYZ002>013-054>058-071-098>099-250100-
NORTHERN WYOMING

CITY           SKY/WX    TMP DP  RH WIND       PRES   REMARKS
JACKSON        LGT SNOW  28  28 100 SW13      29.60F VSB 3/4 WCI  18
CODY           CLOUDY    27  19  74 E7        29.46F WCI  19
GREYBULL       CLOUDY    26  19  74 N5        29.49F WCI  20
6HR MIN TEMP:  20; 6HR MAX TEMP:  28;

WORLAND        FAIR      20  14  77 CALM      29.49F
6HR MIN TEMP:  15; 6HR MAX TEMP:  22;

SHERIDAN       CLOUDY    34  27  75 W3        29.42F
6HR MIN TEMP:  31; 6HR MAX TEMP:  40;

BUFFALO        MOCLDY    35  23  61 CALM      29.44F
6HR MIN TEMP:  33; 6HR MAX TEMP:  41;

GILLETTE       FAIR      37  23  56 SW20G28   29.44F WCI  27
6HR MIN TEMP:  37; 6HR MAX TEMP:  42;

HULETT           N/A    N/A N/A N/A MISG        N/A
NEWCASTLE      FAIR      32  23  69 SE6       29.52F WCI  26

$$
WYZ014>020-022>026-101>103-250100-
CENTRAL WYOMING

CITY           SKY/WX    TMP DP  RH WIND       PRES   REMARKS
BIG PINEY      FLURRIES  26  19  74 N3        29.65F
6HR MIN TEMP:  23; 6HR MAX TEMP:  28; 6HR PCP: TRACE;

PINEDALE       CLOUDY    27  21  80 CALM      29.64F
DUBOIS         NOT AVBL
LANDER         FAIR      28  18  66 VRB5      29.49F WCI  23
6HR MIN TEMP:  19; 6HR MAX TEMP:  36;

RIVERTON       FAIR      24  16  71 E5        29.51F WCI  18
6HR MIN TEMP:  17; 6HR MAX TEMP:  30;

CASPER         FAIR      34  21  59 SW26G40   29.55F WCI  21
6HR MIN TEMP:  30; 6HR MAX TEMP:  35;

DOUGLAS        FAIR      43  20  39 SW17G25   29.52F
6HR MIN TEMP:  40; 6HR MAX TEMP:  46;


$$
WYZ021-027>030-104>119-250100-
SOUTHERN WYOMING

CITY           SKY/WX    TMP DP  RH WIND       PRES   REMARKS
EVANSTON       FAIR      34  23  64 SW16      29.66F WCI  24
6HR MIN TEMP:  26; 6HR MAX TEMP:  37;

KEMMERER       MOCLDY    28  21  74 CALM      29.66F
FORT BRIDGER   CLOUDY    39  26  59 W6        29.69F WCI  35
ROCK SPRINGS   FAIR      29  18  63 S12       29.67F WCI  19
6HR MIN TEMP:  29; 6HR MAX TEMP:  36;

DIXON          FAIR      24  15  69 NW3       29.79F
RAWLINS        FAIR      27  13  55 SW25G35   29.69F WCI  12
6HR MIN TEMP:  26; 6HR MAX TEMP:  32;

SARATOGA       FAIR      30  18  59 S9        29.73F WCI  22
LARAMIE        FAIR      32  15  49 S13G31    29.65S WCI  22
6HR MIN TEMP:  27; 6HR MAX TEMP:  34;

CHEYENNE       FAIR      40  17  39 W23G35    29.58F WCI  30
6HR MIN TEMP:  37; 6HR MAX TEMP:  41;

TORRINGTON     FAIR      42  23  46 W16       29.54F
6HR MIN TEMP:  41; 6HR MAX TEMP:  47;

PINE BLUFFS    FAIR      32  18  55 SW10      29.60F WCI  24

$$



USA.gov is the U.S. government's official web portal to all federal, state and local government web resources and services.